www.pogodaiklimat.ru

Погода и климат >> Архив погоды >> Швейцария >> Сьон


ПОГОДА в Сьоне

  • Прогноз погоды в Сьоне
  • Монитор погоды в Сьоне

АРХИВ ПОГОДЫ в Сьоне

Время (UTC), дата Ветер
(напр.,м/с)
 
Видим.   Явления Облачность Т
(С)
Тd
(С)
f
(%)
Тe
(С)
Тes
(С)
Комфортность P
(гПа)
Po
(гПа)
Тmin
(С)
Tmax
(С)
R
(мм)
R24
(мм)
S
(см)
07 13.09 В 2
{4}
н/о н/о +15.5 +10.8 74 +15 +15 1033.0 976.2
08 13.09 В 2
{3}
н/о н/о +18.1 +10.0 59 +19 +19 1032.4 976.1
09 13.09 ЮВ 2
{4}
н/о н/о +20.3 +11.1 55 +23 +23 комфорт 1031.3 975.5
10 13.09 ЮЗ 2
{3}
н/о н/о +22.2 +10.5 47 +24 +24 комфорт 1029.7 974.4
11 13.09 ЮЗ 2
{3}
н/о н/о +24.7 +10.4 41 +26 +26 жарко 1028.1 973.3
12 13.09 З 3
{5}
н/о н/о +26.2 +11.8 41 +28 +28 жарко 1026.9 972.5
13 13.09 З 5
{8}
н/о н/о +26.7 +11.9 40 +28 +28 жарко 1026.2 971.9
14 13.09 З 6
{10}
н/о н/о +26.9 +11.9 39 +28 +28 жарко 1025.6 971.4
15 13.09 З 7
{10}
н/о н/о +26.8 +13.5 44 +29 +29 жарко 1024.9 970.7
16 13.09 З 5
{10}
н/о н/о +26.6 +14.4 47 +29 +29 жарко 1025.0 970.7
17 13.09 З 4
{8}
н/о н/о +25.3 +13.5 48 +27 +27 жарко 1025.4 970.9
18 13.09 ЮЗ 2
{10}
н/о н/о +20.8 +14.0 65 +24 +24 комфорт 1026.8 971.3 +27.2
19 13.09 В 1
{3}
н/о н/о +20.8 +13.7 64 +25 +25 комфорт 1027.6 972.1
20 13.09 В 2
{3}
н/о н/о +20.0 +12.1 60 +22 +22 комфорт 1028.6 972.9
21 13.09 СВ 1
{3}
н/о н/о +17.2 +12.4 73 +19 +19 1029.9 973.6
22 13.09 С 1
{1}
н/о н/о +17.1 +12.7 75 +19 +19 1030.1 973.7
23 13.09 ЮВ 1
{2}
н/о н/о +16.4 +12.1 76 +18 +18 1030.3 973.8
00 14.09 ЮВ 1
{3}
н/о н/о +15.0 +11.8 81 +15 +15 1030.6 973.8
01 14.09 ЮВ 1
{3}
н/о н/о +14.9 +11.7 81 +15 +15 1030.2 973.4
02 14.09 ЮВ 1
{2}
н/о н/о +14.7 +11.5 81 +15 +15 1030.0 973.2
03 14.09 ЮЗ 1
{3}
н/о н/о +13.6 +11.1 85 +15 +15 1030.1 973.0
04 14.09 В 1
{2}
н/о н/о +12.9 +10.8 87 +14 +14 1030.1 972.9
05 14.09 В 1
{2}
н/о н/о +13.0 +11.1 88 +13 +13 1030.3 973.1
06 14.09 ЮВ 1
{3}
н/о н/о +12.9 +10.7 86 +14 +14 1030.6 973.4 +12.5
07 14.09 В 2
{3}
н/о н/о +16.3 +11.0 71 +17 +17 1030.0 973.5
08 14.09 В 1
{3}
н/о н/о +18.1 +11.8 67 +20 +20 1029.6 973.5
09 14.09 ЮВ 1
{3}
н/о н/о +20.0 +11.2 57 +23 +23 комфорт 1028.7 973.0
10 14.09 ЮЗ 1
{3}
н/о н/о +23.3 +11.9 49 +26 +26 жарко 1027.2 972.2
11 14.09 ЮЗ 2
{4}
н/о н/о +24.9 +11.7 44 +26 +26 жарко 1025.8 971.2
12 14.09 ЮЗ 4
{7}
н/о н/о +25.6 +12.5 44 +27 +27 жарко 1024.8 970.4
13 14.09 З 6
{8}
н/о н/о +26.1 +13.2 45 +28 +28 жарко 1023.8 969.5
14 14.09 З 7
{10}
н/о н/о +26.3 +13.3 45 +28 +28 жарко 1023.2 969.0
15 14.09 З 7
{11}
н/о н/о +26.5 +13.9 46 +29 +29 жарко 1022.3 968.2
16 14.09 З 6
{10}
н/о н/о +25.8 +15.0 51 +29 +29 душно 1022.3 968.0
17 14.09 З 4
{9}
н/о н/о +24.3 +15.2 57 +27 +27 жарко 1023.0 968.4
18 14.09 ЮЗ 2
{11}
н/о н/о +22.9 +15.0 61 +27 +27 душно 1024.0 969.1 +27.0
19 14.09 Ю 1
{4}
н/о н/о +21.8 +14.7 64 +25 +25 комфорт 1025.1 969.9
20 14.09 В 2
{5}
н/о н/о +21.2 +14.1 64 +24 +24 комфорт 1026.1 970.8
21 14.09 В 2
{5}
н/о н/о +19.9 +13.6 67 +22 +22 комфорт 1026.9 971.3
22 14.09 В 1
{2}
н/о н/о +18.0 +14.3 79 +20 +20 1027.1 971.1
23 14.09 В 1
{2}
н/о н/о +17.6 +13.6 77 +19 +19 1026.9 970.8
00 15.09 ЮВ 1
{5}
н/о н/о +16.6 +13.5 82 +18 +18 1027.1 970.8
01 15.09 В 1
{2}
н/о н/о +16.1 +13.4 84 +17 +17 1027.3 970.9
02 15.09 ЮВ 1
{2}
н/о н/о +15.3 +12.8 85 +16 +16 1027.2 970.6
03 15.09 СВ 1
{2}
н/о н/о +15.8 +12.8 82 +17 +17 1026.9 970.5
04 15.09 ЮВ 1
{2}
н/о н/о +15.0 +12.4 84 +15 +15 1027.1 970.5
05 15.09 В 2
{2}
н/о н/о +14.5 +12.3 87 +14 +14 1027.5 970.8
06 15.09 В 2
{3}
н/о н/о +15.6 +12.6 82 +15 +15 1027.4 970.9 +13.9
07 15.09 В 2
{3}
н/о н/о +17.0 +12.7 76 +18 +18 1026.9 970.7
08 15.09 Ю 1
{3}
н/о н/о +18.4 +13.4 73 +20 +20 1026.5 970.6
09 15.09 В 2
{3}
н/о н/о +21.5 +12.9 58 +24 +24 комфорт 1025.1 969.9
10 15.09 ЮЗ 1
{2}
н/о н/о +22.9 +12.4 52 +26 +26 жарко 1023.9 969.0
11 15.09 З 4
{6}
н/о н/о +25.3 +13.0 46 +27 +27 жарко 1022.8 968.4
12 15.09 З 5
{8}
н/о н/о +26.5 +14.1 46 +29 +29 жарко 1021.5 967.4
13 15.09 З 3
{8}
н/о н/о +27.6 +14.2 44 +30 +30 жарко 1020.4 966.6
14 15.09 З 6
{9}
н/о н/о +28.3 +13.6 40 +30 +30 жарко 1019.2 965.6
15 15.09 З 5
{10}
н/о н/о +27.8 +13.2 41 +30 +30 жарко 1018.7 965.0
16 15.09 З 5
{9}
н/о н/о +27.3 +12.2 39 +29 +29 жарко 1018.6 964.8
17 15.09 З 5
{8}
н/о н/о +25.5 +12.2 44 +27 +27 жарко 1018.9 964.8
18 15.09 З 3
{10}
н/о н/о +24.6 +11.8 45 +26 +26 жарко 1019.6 965.3 +28.4
19 15.09 Ю 1
{6}
н/о н/о +20.1 +14.1 68 +23 +23 комфорт 1021.1 965.8
20 15.09 З 1
{2}
н/о н/о +19.6 +13.5 68 +23 +23 комфорт 1021.7 966.3
21 15.09 СВ 1
{6}
н/о н/о +17.6 +14.0 79 +19 +19 1022.4 966.6
22 15.09 ЮВ 2
{3}
н/о н/о +17.9 +12.9 73 +19 +19 1022.7 966.9
23 15.09 ЮВ 1
{1}
н/о н/о +16.7 +13.3 80 +18 +18 1023.1 967.0
00 16.09 штиль 0
{6}
н/о н/о +16.4 +12.8 79 +16 +16 1023.3 967.2
01 16.09 В 1
{2}
н/о н/о +15.6 +12.3 81 +16 +16 1023.4 967.1
02 16.09 В 1
{2}
н/о н/о +15.8 +11.9 78 +17 +17 1023.1 966.9
03 16.09 ЮВ 1
{2}
н/о н/о +14.9 +11.9 82 +15 +15 1023.3 966.9
04 16.09 В 1
{2}
н/о н/о +14.5 +11.8 84 +15 +15 1023.2 966.7
05 16.09 В 2
{2}
н/о н/о +15.2 +11.7 80 +15 +15 1022.9 966.6
06 16.09 В 1
{3}
н/о н/о +14.5 +11.7 83 +15 +15 1023.1 966.6 +14.3
07 16.09 В 2
{4}
н/о н/о +17.1 +12.2 73 +17 +17 1022.7 966.7
08 16.09 В 1
{3}
н/о н/о +19.5 +12.8 65 +22 +22 комфорт 1021.8 966.4
09 16.09 СВ 1
{4}
н/о н/о +21.5 +12.1 55 +24 +24 комфорт 1020.9 965.9
10 16.09 Ю 1
{2}
н/о н/о +23.3 +11.2 46 +26 +26 жарко 1019.7 965.1
11 16.09 ЮЗ 2
{3}
н/о н/о +25.7 +11.9 42 +27 +27 жарко 1018.3 964.2
12 16.09 З 4
{7}
н/о н/о +26.8 +12.0 40 +28 +28 жарко 1017.3 963.5
13 16.09 З 4
{6}
н/о н/о +29.0 +12.0 35 +30 +30 жарко 1015.9 962.6
14 16.09 З 7
{10}
н/о н/о +29.5 +10.5 31 +30 +30 жарко 1014.7 961.5
15 16.09 З 8
{12}
н/о н/о +29.6 +10.9 31 +30 +30 жарко 1014.3 961.2
16 16.09 ЮЗ 4
{11}
н/о н/о +27.4 +11.2 36 +28 +28 жарко 1015.0 961.4
17 16.09 З 6
{9}
н/о н/о +26.9 +11.3 38 +28 +28 жарко 1015.0 961.3
18 16.09 З 2
{12}
н/о н/о +25.2 +11.5 42 +27 +27 жарко 1015.9 961.9 +30.2
19 16.09 З 2
{4}
н/о н/о +22.9 +12.6 52 +26 +26 жарко 1017.0 962.5
20 16.09 В 2
{5}
н/о н/о +19.2 +12.8 66 +21 +21 комфорт 1018.2 962.9
21 16.09 В 1
{5}
н/о н/о +18.1 +12.9 72 +20 +20 1018.7 963.2
22 16.09 ЮВ 1
{2}
н/о н/о +17.1 +12.9 76 +18 +18 1019.1 963.3
23 16.09 штиль 0
{1}
н/о н/о +17.2 +12.2 72 +17 +17 1019.1 963.4
00 17.09 штиль 0
{5}
н/о н/о +17.0 +11.8 71 +17 +17 1019.3 963.5
01 17.09 В 1
{2}
н/о н/о +15.7 +11.3 75 +16 +16 1019.4 963.4
02 17.09 В 1
{2}
н/о н/о +15.6 +11.3 76 +16 +16 1019.3 963.2
03 17.09 ЮВ 1
{2}
н/о н/о +14.4 +11.1 81 +15 +15 1019.5 963.2
04 17.09 В 1
{2}
н/о н/о +14.0 +11.0 82 +14 +14 1019.8 963.4
05 17.09 ЮВ 1
{2}
н/о н/о +14.3 +10.8 79 +15 +15 1019.5 963.2
06 17.09 В 1
{2}
н/о н/о +14.8 +10.8 77 +15 +15 1019.6 963.4 +14.0
07 17.09 В 2
{2}
н/о н/о +16.9 +11.2 69 +17 +17 1019.2 963.4
08 17.09 В 2
{3}
н/о н/о +19.0 +10.9 59 +20 +20 1018.8 963.4
09 17.09 СВ 1
{3}
н/о н/о +21.0 +10.2 50 +24 +24 комфорт 1017.8 962.9
10 17.09 ЮЗ 2
{3}
н/о н/о +24.2 +10.6 42 +25 +25 комфорт 1016.2 962.0
11 17.09 З 3
{5}
н/о н/о +25.9 +12.7 44 +28 +28 жарко 1015.0 961.1
12 17.09 З 4
{8}
н/о н/о +27.0 +12.6 41 +29 +29 жарко 1013.8 960.2
13 17.09 З 7
{10}
н/о н/о +29.3 +12.4 35 +30 +30 жарко 1012.5 959.4
14 17.09 З 7
{11}
н/о н/о +29.0 +11.9 35 +30 +30 жарко 1012.0 958.9
15 17.09 З 8
{12}
н/о н/о +28.9 +10.0 31 +29 +29 жарко 1011.7 958.6
16 17.09 З 7
{12}
н/о н/о +27.4 +8.6 31 +27 +27 жарко 1012.2 958.8
17 17.09 З 6
{11}
н/о н/о +25.8 +8.1 32 +26 +26 жарко 1012.8 959.0
18 17.09 Ю 1
{12}
н/о н/о +23.7 +8.3 37 +24 +24 комфорт 1013.5 959.3 +29.7
19 17.09 СЗ 1
{4}
н/о н/о +19.9 +10.6 55 +23 +23 комфорт 1014.8 959.8
20 17.09 В 1
{3}
н/о н/о +19.9 +10.0 53 +22 +22 комфорт 1015.2 960.2
21 17.09 В 2
{4}
н/о н/о +19.0 +9.9 56 +21 +21 комфорт 1015.9 960.7
22 17.09 В 1
{3}
н/о н/о +17.6 +10.3 62 +19 +19 1016.4 960.9
23 17.09 В 1
{2}
н/о н/о +16.1 +10.2 68 +17 +17 1016.7 960.9
00 18.09 ЮВ 1
{4}
н/о н/о +14.7 +11.1 79 +16 +16 1017.3 961.2
01 18.09 ЮВ 1
{3}
н/о н/о +14.6 +10.4 76 +15 +15 1017.5 961.3
02 18.09 З 1
{2}
н/о н/о +14.3 +10.6 78 +15 +15 1017.8 961.6
03 18.09 З 1
{3}
н/о н/о +14.6 +10.8 78 +16 +16 1017.9 961.7
04 18.09 З 1
{2}
н/о н/о +13.7 +11.0 84 +15 +15 1018.2 961.8
05 18.09 ЮВ 1
{2}
н/о н/о +13.8 +11.0 83 +14 +14 1018.5 962.1
06 18.09 Ю 1
{3}
н/о н/о +14.3 +11.3 82 +15 +15 1018.9 962.6 +13.6
07 18.09 СЗ 1
{3}
н/о н/о +15.6 +11.9 79 +17 +17 1019.2 963.1
08 18.09 Ю 1
{2}
н/о н/о +16.9 +12.2 74 +18 +18 1019.0 963.2
09 18.09 ЮЗ 1
{3}
н/о н/о +18.1 +12.4 69 +19 +19 1018.0 962.5
10 18.09 З 2
{3}
н/о н/о +18.9 +11.7 63 +20 +20 1017.3 962.0
11 18.09 З 2
{4}
н/о н/о +20.5 +11.7 57 +23 +23 комфорт 1016.5 961.5
12 18.09 З 8
{12}
н/о н/о +18.5 +12.0 66 +18 +18 1016.8 961.4
13 18.09 З 9
{12}
н/о н/о +18.7 +11.8 64 +18 +18 1016.6 961.3
14 18.09 З 8
{12}
н/о н/о +19.8 +11.8 60 +21 +21 комфорт 1016.4 961.3
15 18.09 З 9
{14}
н/о н/о +20.1 +11.5 58 +21 +21 комфорт 1015.9 960.9
16 18.09 З 8
{12}
н/о н/о +19.7 +11.4 59 +21 +21 комфорт 1016.0 960.9
17 18.09 З 7
{12}
н/о н/о +18.4 +11.3 63 +18 +18 1016.6 961.2
18 18.09 З 3
{14}
н/о н/о +17.4 +11.4 68 +17 +17 1017.5 961.9 +21.4
19 18.09 В 1
{4}
н/о н/о +16.2 +11.4 73 +17 +17 1018.7 962.8
20 18.09 ЮЗ 1
{3}
н/о н/о +15.3 +11.4 78 +17 +17 1019.5 963.4
21 18.09 ЮВ 1
{4}
н/о н/о +14.3 +11.6 84 +15 +15 1020.2 963.8
22 18.09 В 2
{3}
н/о н/о +15.3 +11.4 78 +15 +15 1020.1 963.9
23 18.09 В 1
{3}
н/о н/о +15.5 +11.6 78 +16 +16 1020.1 964.0
00 19.09 ЮВ 1
{4}
н/о н/о +15.4 +12.1 81 +17 +17 1020.6 964.4
01 19.09 ЮЗ 1
{2}
н/о н/о +15.5 +12.7 83 +17 +17 1020.0 963.9
02 19.09 З 1
{2}
н/о н/о +15.7 +12.2 80 +17 +17 1020.1 964.0
03 19.09 З 2
{3}
н/о н/о +15.6 +11.7 78 +16 +16 1020.0 963.9
04 19.09 З 2
{3}
н/о н/о +15.3 +11.2 77 +15 +15 1019.9 963.7
05 19.09 З 2
{3}
н/о н/о +15.4 +10.8 74 +16 +16 1019.8 963.7
06 19.09 З 2
{4}
н/о н/о +15.1 +10.6 74 +15 +15 1020.3 964.1 +14.3
07 19.09 З 4
{5}
н/о н/о +14.7 +9.5 71 +14 +14 1020.9 964.6
08 19.09 З 4
{6}
н/о н/о +14.6 +9.1 70 +14 +14 1021.4 965.0
09 19.09 З 3
{6}
н/о н/о +15.2 +9.0 66 +15 +15 1021.4 965.1
10 19.09 З 4
{5}
н/о н/о +16.4 +9.3 63 +16 +16 1020.9 964.9
11 19.09 ЮЗ 4
{8}
н/о н/о +17.9 +9.9 59 +18 +18 1019.9 964.3
12 19.09 З 6
{8}
н/о н/о +19.9 +10.8 56 +21 +21 комфорт 1018.7 963.5
13 19.09 З 7
{10}
н/о н/о +20.6 +10.4 52 +22 +22 комфорт 1017.7 962.7
14 19.09 З 7
{12}
н/о н/о +21.1 +10.1 49 +23 +23 комфорт 1017.0 962.1
15 19.09 З 9
{14}
н/о н/о +20.9 +9.6 48 +22 +22 комфорт 1016.8 961.9
16 19.09 З 10
{14}
н/о н/о +20.2 +9.5 50 +21 +21 комфорт 1017.1 962.1
17 19.09 З 6
{14}
н/о н/о +18.8 +9.4 54 +19 +19 1018.1 962.7
18 19.09 З 4
{14}
н/о н/о +17.7 +9.2 57 +18 +18 1019.1 963.5 +22.0
19 19.09 ЮВ 1
{8}
н/о н/о +15.3 +9.8 70 +17 +17 1020.9 964.7
20 19.09 ЮЗ 1
{2}
н/о н/о +15.0 +9.8 71 +16 +16 1022.1 965.8
21 19.09 штиль 0
{8}
н/о н/о +13.4 +9.8 79 +13 +13 1023.1 966.4
22 19.09 ЮВ 1
{2}
н/о н/о +13.3 +9.8 79 +14 +14 1023.6 966.8
23 19.09 ЮЗ 1
{2}
н/о н/о +12.3 +10.0 86 +13 +13 1023.9 966.9
00 20.09 СЗ 1
{8}
н/о н/о +11.7 +9.3 85 +12 +12 1024.5 967.4
01 20.09 ЮВ 1
{2}
н/о н/о +11.4 +9.3 87 +12 +12 1024.6 967.4
02 20.09 штиль 0
{1}
н/о н/о +11.0 +9.1 88 +10 +10 1024.8 967.5
03 20.09 ЮЗ 1
{2}
н/о н/о +10.8 +8.8 87 +10 +10 1024.8 967.5
04 20.09 В 1
{2}
н/о н/о +10.6 +8.8 89 +11 +11 1024.7 967.3
05 20.09 Ю 1
{2}
н/о н/о +9.8 +8.0 89 +10 +10 1024.8 967.3
06 20.09 штиль 0
{2}
н/о н/о +10.5 +8.6 88 +10 +10 1024.9 967.5 +9.7
07 20.09 Ю 1
{2}
н/о н/о +12.1 +9.9 86 +12 +12 1025.1 968.0

 

Местоположение метеостанции Сьон (Швейцария): широта 46.22 долгота 7.33 высота над уровнем моря 481 м.

В архиве по умолчанию представлена погода в Сьоне за последнюю неделю. Архивные данные за месяц целиком и за предыдущие месяцы, начиная с января 2011 года, Вы можете получить, выбрав интересующий диапазон дат из раскрывающегося списка и нажав кнопку "Ввод!".


*Определитесь, кто Вы:
робот инопланетянин человек

Внимание! Время в таблицах - всемирное. Для получения местного времени необходимо прибавить поправку, которая равна 1 ч.

Смотрите также архив погоды в соседних городах и на ближайших метеорологических станциях:

Погода в Фее (Швейцария) (6 км)
Погода в Лез Алта (Швейцария) (14 км)
Погода на Ле-Дьяблере (Швейцария) (16 км)
Погода в Монтане (Швейцария) (16 км)
Погода в Монтанье-Баньес (Швейцария) (18 км)
Погода в Эволене (Швейцария) (18 км)
Погода в Эвьоне (Швейцария) (24 км)
Погода в Коль де Моссе (Швейцария) (26 км)
Погода в Сальване (Швейцария) (26 км)
Погода в Шато-Д`о (Швейцария) (32 км)

Пояснения к столбцам:

Ветер - указаны скорость ветра в м/с - средняя за 10 мин, порывы в срок и между сроками (в фигурных скобках) и направление, откуда дует ветер: С - северный, СВ - северо-восточный, В - восточный, ЮВ - юго-восточный, Ю - южный, ЮЗ - юго-западный, З - западный, СЗ - северо-западный.
Видимость - горизонтальная дальность видимости в метрах или километрах. При видимости от 1 до 10 км при отсутствии осадков обычно наблюдается дымка, при ухудшении видимости до 1 км и менее - туман. В сухую погоду видимость может ухудшаться дымом, пылью или мглою.
Явления - указаны атмосферные явления, наблюдавшиеся в срок или в последний час перед сроком; фигурными скобками обозначены явления, наблюдавшиеся между сроками (за 1-3 часа до срока); квадратными скобками обозначены град или гололедные отложения с указанием их диаметра в мм.
Облачность - указаны через наклонную черту общая и нижняя облачность в баллах и высота нижней границы облаков в метрах; квадратными скобками обозначены формы облаков: Ci - перистые, Cs - перисто-слоистые, Cc - перисто-кучевые, Ac - высококучевые, As - высокослоистые, Sc - слоисто-кучевые, Ns - слоисто-дождевые, Cu - кучевые, Cb - кучево-дождевые. Подробнее классификацию облаков см. в Атласе облаков (PDF).
T - Температура воздуха - температура, измеренная на высоте 2 м над землей.
Td - Температура точки росы - температура, при понижении до которой содержащийся в воздухе водяной пар достигнет насыщения.
f - Относительная влажность воздуха - влажноcть воздуха, измеренная на высоте 2 м над землей.
Te - Эффективная температура - температура, которую ощущает одетый по сезону человек в тени. Характеристика душности погоды. При расчете учитывается влияние влажности воздуха и скорости ветра на теплоощущения человека.
Tes - Эффективная температура на солнце - температура, которую ощущает человек, с поправкой на солнечный нагрев. Характеристика знойности погоды. Зависит от высоты солнца над горизонтом, облачности и скорости ветра. Ночью, в пасмурную погоду, а также при ветре 12 м/с и более поправка равна нулю.
P - Атмосферное давление - приведенное к уровню моря атмосферное давление.
Po - Атмосферное давление - измеренное на уровне метеостанции атмосферное давление.
Tmin - Минимальная температура - минимум температуры воздуха на высоте 2 м над землей.
Tmax - Максимальная температура - максимум температуры воздуха на высоте 2 м над землей.
R - Количество осадков - Количество выпавших осадков за период времени, мм. При наведении курсора мыши на число - период времени, за который выпало указанное количество осадков.
R24 - Количество осадков - Количество выпавших осадков за 24 часа, мм.
S - Снежный покров - Высота снежного покрова, см. При наведении курсора мыши на число - состояние снежного покрова и степень покрытия местности в баллах.